WST516 MYNN-MYAK

Flight info

Callsign WST516
Flight time 0h 17m
Altitude 6000
Route ZQA
Aircraft E145/M-SDFGIRW/S

Departure

Time 2026-05-04 13:56
Airport Lynden Pindling International Airport (MYNN)

Arrival

Time 2026-05-04 14:13
Airport Congo Town Airport (MYAK)
Time Latitude Longitude Altitude Speed Heading
2026-05-04 13:46 25.04839 -77.46584 28 ft 0 kts 41°
2026-05-04 13:51 25.04839 -77.46574 28 ft 1 kts 139°
2026-05-04 13:51 25.04802 -77.46616 26 ft 12 kts 239°
2026-05-04 13:51 25.04744 -77.46699 24 ft 11 kts 225°
2026-05-04 13:52 25.04709 -77.46774 23 ft 7 kts 289°
2026-05-04 13:52 25.04745 -77.46822 24 ft 8 kts 317°
2026-05-04 13:52 25.04787 -77.46866 25 ft 8 kts 316°
2026-05-04 13:53 25.04829 -77.46915 26 ft 8 kts 310°
2026-05-04 13:53 25.04875 -77.46968 26 ft 10 kts 318°
2026-05-04 13:53 25.04931 -77.47021 26 ft 11 kts 316°
2026-05-04 13:54 25.05053 -77.47165 25 ft 16 kts 313°
2026-05-04 13:54 25.05165 -77.47293 23 ft 21 kts 315°
2026-05-04 13:54 25.05178 -77.47515 22 ft 10 kts 210°
2026-05-04 13:55 25.05121 -77.47498 21 ft 11 kts 139°
2026-05-04 13:55 25.04324 -77.46613 23 ft 144 kts 136°
2026-05-04 13:55 25.03545 -77.45781 312 ft 161 kts 135°
2026-05-04 13:56 25.02708 -77.44852 800 ft 175 kts 135°
2026-05-04 13:56 25.01867 -77.43900 1356 ft 177 kts 135°
2026-05-04 13:56 25.00001 -77.42258 2349 ft 167 kts 178°
2026-05-04 13:57 24.98890 -77.42349 2785 ft 165 kts 193°
2026-05-04 13:57 24.97707 -77.42548 3125 ft 177 kts 193°
2026-05-04 13:58 24.93686 -77.43218 4272 ft 212 kts 193°
2026-05-04 13:58 24.90624 -77.43737 5020 ft 235 kts 193°
2026-05-04 13:58 24.88960 -77.44022 5398 ft 246 kts 193°
2026-05-04 13:59 24.87226 -77.44323 5772 ft 257 kts 193°
2026-05-04 13:59 24.85457 -77.44625 5967 ft 255 kts 193°
2026-05-04 13:59 24.81906 -77.45236 5989 ft 261 kts 193°
2026-05-04 14:00 24.80111 -77.45550 5990 ft 263 kts 193°
2026-05-04 14:00 24.76460 -77.46194 5989 ft 268 kts 193°
2026-05-04 14:00 24.74606 -77.46521 5984 ft 265 kts 193°
2026-05-04 14:01 24.72782 -77.46835 5982 ft 263 kts 193°
2026-05-04 14:01 24.70977 -77.47150 5982 ft 260 kts 193°
2026-05-04 14:01 24.67420 -77.47755 5985 ft 256 kts 193°
2026-05-04 14:02 24.65659 -77.48061 5985 ft 254 kts 193°
2026-05-04 14:02 24.63930 -77.48356 5988 ft 253 kts 193°
2026-05-04 14:02 24.62192 -77.48657 5990 ft 251 kts 193°
2026-05-04 14:02 24.60454 -77.48953 5990 ft 250 kts 193°
2026-05-04 14:03 24.58734 -77.49249 5987 ft 249 kts 193°
2026-05-04 14:03 24.57024 -77.49542 5989 ft 248 kts 193°
2026-05-04 14:03 24.55322 -77.49839 5985 ft 248 kts 193°
2026-05-04 14:03 24.53601 -77.50116 5983 ft 248 kts 188°
2026-05-04 14:04 24.50125 -77.50135 5875 ft 253 kts 184°
2026-05-04 14:04 24.48333 -77.50135 5751 ft 257 kts 184°
2026-05-04 14:04 24.46527 -77.50062 5627 ft 261 kts 177°
2026-05-04 14:05 24.42947 -77.49157 5393 ft 265 kts 168°
2026-05-04 14:05 24.41201 -77.48651 5259 ft 253 kts 169°
2026-05-04 14:05 24.39520 -77.48164 5121 ft 243 kts 168°
2026-05-04 14:06 24.37927 -77.47702 4986 ft 234 kts 169°
2026-05-04 14:06 24.36358 -77.47241 4848 ft 226 kts 169°
2026-05-04 14:06 24.34869 -77.46802 4714 ft 219 kts 169°
2026-05-04 14:06 24.33417 -77.46375 4582 ft 212 kts 169°
2026-05-04 14:07 24.32007 -77.45960 4449 ft 206 kts 169°
2026-05-04 14:07 24.30635 -77.45569 4316 ft 200 kts 172°
2026-05-04 14:07 24.29291 -77.45269 4186 ft 194 kts 173°
2026-05-04 14:07 24.27982 -77.44983 4108 ft 183 kts 173°
2026-05-04 14:08 24.26763 -77.44711 3964 ft 174 kts 173°
2026-05-04 14:08 24.25600 -77.44453 3825 ft 167 kts 173°
2026-05-04 14:08 24.24485 -77.44211 3682 ft 159 kts 176°
2026-05-04 14:08 24.23415 -77.44205 3552 ft 155 kts 190°
2026-05-04 14:09 24.21101 -77.44611 3373 ft 179 kts 193°
2026-05-04 14:09 24.19836 -77.44847 3272 ft 190 kts 194°
2026-05-04 14:10 24.17340 -77.45543 3007 ft 175 kts 201°
2026-05-04 14:10 24.16239 -77.46030 2795 ft 164 kts 213°
2026-05-04 14:10 24.15369 -77.46759 2588 ft 160 kts 229°
2026-05-04 14:10 24.14679 -77.47720 2610 ft 159 kts 242°
2026-05-04 14:11 24.14297 -77.48856 2640 ft 162 kts 262°
2026-05-04 14:11 24.14379 -77.51443 2381 ft 178 kts 281°
2026-05-04 14:11 24.14627 -77.52670 2135 ft 159 kts 283°
2026-05-04 14:12 24.14905 -77.53834 1518 ft 161 kts 284°
2026-05-04 14:12 24.15153 -77.55003 1007 ft 157 kts 282°
2026-05-04 14:12 24.15540 -77.57169 341 ft 140 kts 283°
2026-05-04 14:13 24.15739 -77.58239 97 ft 142 kts 283°
2026-05-04 14:13 24.15915 -77.59206 40 ft 111 kts 288°
2026-05-04 14:13 24.15984 -77.59592 36 ft 13 kts 268°
2026-05-04 14:13 24.15990 -77.59622 36 ft 1 kts 11°
2026-05-04 14:14 24.15991 -77.59601 36 ft 8 kts 120°
2026-05-04 14:14 24.15923 -77.59254 39 ft 27 kts 100°
2026-05-04 14:14 24.15884 -77.59025 40 ft 36 kts 101°
2026-05-04 14:15 24.15764 -77.58424 39 ft 17 kts 116°
2026-05-04 14:15 24.15668 -77.58431 38 ft 3 kts 92°
2026-05-04 14:16 24.15668 -77.58429 38 ft 0 kts 91°